Flag for South Korea Weather past 2 weeks in Gunsan, South Korea

Now
49 °F

Clear.


Feels Like: 46 °F
Forecast: 48 / 56 °F
Wind: 7 mph from Northwest

Location: Kunsan Ab

Current Time: Mar 30, 2015 at 7:57:07 PM

Latest Report: Mar 30, 2015 at 6:58 PM


Visibility: 10 mi

Pressure: 30.06 "Hg

Humidity: 99%

Dew point: 49 °F

Location of GunsanLocation

Historic Weather in Gunsan — Graph

°F

Gunsan temperature yesterday

Maximum temperature yesterday: 56 °F (at 1:58 PM)
Minimum temperature yesterday: 44 °F (at 5:58 AM)
Average temperature yesterday: 49 °F

Past Weeks' High & Low Weather Summary

 TemperatureHumidityPressure
High63 °F (Mar 17, 3:58 PM)100% (Mar 18, 9:58 AM)30.61 "Hg (Mar 18, 9:58 AM)
Low29 °F (Mar 25, 6:58 AM)17% (Mar 28, 12:58 PM)29.70 "Hg (Mar 18, 4:58 PM)
Average46 °F73%30.19 "Hg
* Reported Mar 15 6:58 PM — Mar 30 6:58 PM, Gunsan, Weather by CustomWeather, © 2015

Note: Actual official high and low records may vary slightly from our data, if they occured in-between our weather recording intervals... More about our weather records

Advertising

Gunsan weather history for previous 24 hours

 ConditionsComfort  
Time TempWeatherWind HumidityBarometerVisibility
6:58 PM
Mon, Mar 30
49 °FClear.7 mph99%30.06 "Hg10 mi
5:58 PM53 °FSunny.8 mph89%30.05 "Hg3 mi
4:58 PM57 °FSunny.9 mph79%30.04 "Hg4 mi
4:00 PM59 °FSunny.10 mph72%30.04 "Hg4 mi
2:58 PM61 °FSunny.7 mph65%30.06 "Hg4 mi
1:58 PM61 °FSunny.7 mph62%30.08 "Hg3 mi
12:58 PM60 °FSunny.8 mph66%30.11 "Hg3 mi
11:58 AM59 °FSunny.7 mph67%30.12 "Hg3 mi
10:58 AM59 °FSunny.6 mph64%30.13 "Hg3 mi
9:58 AM51 °FFog.5 mph100%30.12 "Hg1 mi
8:58 AM46 °FFog.5 mph100%30.12 "Hg0 mi
7:58 AM42 °FFog.5 mph100%30.11 "Hg0 mi
6:58 AM40 °FFog.2 mph100%30.10 "Hg0 mi
5:58 AM40 °FFog.2 mph100%30.07 "Hg1 mi
4:58 AM43 °FFog.3 mph100%30.07 "Hg0 mi
3:58 AM42 °FLight rain. Fog.7 mph100%30.05 "Hg0 mi
3:03 AM43 °FFog.6 mph100%30.06 "Hg1 mi
2:55 AM43 °FFog.5 mph100%30.06 "Hg1 mi
1:58 AM43 °FFog.No wind99%30.08 "Hg6 mi
12:58 AM46 °FClear.3 mph99%30.09 "Hg8 mi
11:58 PM
Sun, Mar 29
46 °FClear.5 mph98%30.10 "Hg8 mi
10:58 PM46 °FClear.2 mph97%30.09 "Hg8 mi
9:58 PM46 °FClear.1 mph96%30.09 "Hg8 mi
8:58 PM46 °FClear.8 mph94%30.08 "Hg9 mi
7:58 PM46 °FClear.6 mph92%30.06 "Hg10 mi
Weather by CustomWeather, © 2015

See weather overviewHow to use our weather pages